A/2019 T2

Japanese version
Home page
Updated on March 6, 2020

---------------------------------------------------------------------

* Profile

Discovery Date October 9, 2019
Magnitude 20.6 mag
Discoverer Mt. Lemmon Survey

* Orbital Elements

Epoch 2021 Apr. 16.0 TT = JDT 2459320.5
T 2021 Apr. 22.27541 TT                                 Williams
q   2.6458154            (2000.0)            P               Q
z  +0.0005343      Peri.  239.39032     +0.33385493     -0.86097784
 +/-0.0000131      Node   155.64395     -0.13761006     +0.35822165
e   0.9985863      Incl.  111.48763     -0.93252579     -0.36110165
H   12.5
From 56 observations 2019 Aug. 26-Dec. 29, mean residual 0".3.

* Magnitudes Graph

        H = 12.0  G = 0.15

---------------------------------------------------------------------

The orbital elements are published on M.P.E.C. 2020-A105.
The magnitudes graphs are made with Comet for Windows.

---------------------------------------------------------------------

Copyright(C) Seiichi Yoshida (comet@aerith.net). All rights reserved.